Regional Weather Roundup
Issued by NWS Green Bay, WI

Home | Current Version | Previous Version | Graphics & Text | Print | Product List | Glossary Off
Versions: 1 2 3 4 5 6 7 8 9 10 11 12 13 14 15 16 17 18 19 20 21 22 23 24 25 26 27 28 29 30 31 32 33 34 35 36 37 38 39 40 41 42 43 44 45 46 47 48 49 50

000
ASUS43 KGRB 011059
RWRGRB

NORTH-CENTRAL AND NORTHEAST WISCONSIN REGIONAL WEATHER ROUNDUP
NATIONAL WEATHER SERVICE GREEN BAY WI
600 AM CDT WED OCT 01 2014

WIZ005-009-010>012-018-019-011200-
NORTH CENTRAL WISCONSIN

CITY           SKY/WX    TMP DP  RH WIND       PRES   REMARKS
IRONWOOD       NOT AVBL
MANITOWISH WTR NOT AVBL
ARBOR VITAE    NOT AVBL
EAGLE RIVER    NOT AVBL
LAND O LAKES   NOT AVBL
RHINELANDER    CLOUDY    44  42  93 S9        30.00F
PHILLIPS       NOT AVBL
ANTIGO         NOT AVBL
TOMAHAWK       NOT AVBL
MERRILL        NOT AVBL
$$

WIZ013-073-011200-
NORTHEAST WISCONSIN

CITY           SKY/WX    TMP DP  RH WIND       PRES   REMARKS
IRON MOUNTAIN  CLOUDY    47  46  97 S3        30.01R FOG
MARINETTE      NOT AVBL
$$

WIZ017-030-035>037-045-011200-
CENTRAL WISCONSIN

CITY           SKY/WX    TMP DP  RH WIND       PRES   REMARKS
MEDFORD        NOT AVBL
WAUSAU         CLOUDY    46  45  96 SE6       30.00S FOG
MOSINEE        CLOUDY    45  45 100 SE6       30.01S
MARSHFIELD     CLOUDY    47  45  93 SE12      29.97F FOG
WISC RAPIDS    CLOUDY    47  46  97 SE5       30.01S
STEVENS POINT  NOT AVBL
WAUPACA        NOT AVBL
SHAWANO        NOT AVBL
CLINTONVILLE   NOT AVBL
$$

WIZ038-039-048-051-011200-
FOX VALLEY

CITY           SKY/WX    TMP DP  RH WIND       PRES   REMARKS
NWS GREEN BAY  CLOUDY    50  49  96 CALM      30.02S
APPLETON       DRIZZLE   48  48 100 CALM      30.02R FOG
OSHKOSH        CLOUDY    50  49  96 CALM      30.01R
FOND DU LAC    CLOUDY    50  48  93 CALM      30.01R
$$

WIZ022-050-052-011200-
EAST CENTRAL WISCONSIN

CITY           SKY/WX    TMP DP  RH WIND       PRES   REMARKS
STURGEON BAY   NOT AVBL
MANITOWOC      NOT AVBL
SHEBOYGAN      CLOUDY    53  49  86 E3        30.00F
$$

LMZ563-521-522-541>543-011200-
LAKESHORE

STATION/POSITION TIME  TEMP    WIND        PRES    VSBY  WAVE
                       AIR SEA DIR/SP/G                  HT/PER
                 (UTC) (F)     (DEG/KT/KT) (MB)    (MI)  (FT/S)
SHEBOYGAN LKSHOR 1000   56 54  130/ 11/ 12 1016.6F
KEWAUNEE LKSHORE 1000   53     160/  9/ 10 1015.7F
NORTHPORT PIER   1000   53     160/  5/ 14 1016.9S
N MID LAKE BUOY  1000   54 58  190/ 10/ 10 1017.2F         1/ 3
S GREEN BAY BUOY 1000   52     VRB  8/ 10  1017.4F
CHAMBERS ISLAND  1000   52     110/  4/  5 1016.6S
MENOMINEE LKSHOR 1000   53     150/ 10/ 12 1017.0S
$$


USA.gov is the U.S. government's official web portal to all federal, state and local government web resources and services.